Location: Unspecified
(0.0000°N, 1.0000°E)
Time: 00:39:58
(UTC+01:00)

X-37B - Pass Details

Date: 30 September 2020
Orbit: 382 x 392 km, 45.0° (Epoch: 15 October)

Event Time Altitude Azimuth Distance (km) Brightness Sun altitude
Exits shadow 06:39:08 20° 341° (NNW) 964 2.4 -16.7°
Maximum altitude 06:41:01 45° 48° (NE) 526 1.5 -16.2°
Drops below altitude 10° 06:44:04 10° 122° (ESE) 1,401 4.3 -15.4°
Sets 06:46:11 0° 129° (SE) 2,258 5.4 -14.9°
